Time,TemperatureF,DewpointF,PressureIn,WindDirection,WindDirectionDegrees,WindSpeedMPH,WindSpeedGustMPH,Humidity,HourlyPrecipIn,Conditions,Clouds,dailyrainin,SoftwareType,DateUTC
2013-07-13 00:02:00,65.2,61.0,30.04,ENE,74,0.0,0.0,86,0.00,,,0.00,weatherlink.com 1.10,2013-07-13 05:02:00,
2013-07-13 00:17:00,64.2,60.0,30.04,ENE,73,0.0,0.0,87,0.00,,,0.00,weatherlink.com 1.10,2013-07-13 05:17:00,
2013-07-13 00:32:00,65.1,61.0,30.04,ENE,74,0.0,1.0,86,0.00,,,0.00,weatherlink.com 1.10,2013-07-13 05:32:00,
2013-07-13 00:47:00,63.4,60.0,30.04,ENE,73,0.0,0.0,88,0.00,,,0.00,weatherlink.com 1.10,2013-07-13 05:47:00,
2013-07-13 01:02:00,62.9,60.0,30.04,ENE,74,0.0,0.0,91,0.00,,,0.00,weatherlink.com 1.10,2013-07-13 06:02:00,
2013-07-13 01:17:00,62.4,60.0,30.04,ENE,73,0.0,0.0,91,0.00,,,0.00,weatherlink.com 1.10,2013-07-13 06:17:00,
2013-07-13 01:32:00,61.7,60.0,30.05,ENE,74,0.0,0.0,94,0.00,,,0.00,weatherlink.com 1.10,2013-07-13 06:32:00,
2013-07-13 01:48:00,61.3,60.0,30.05,ENE,73,0.0,1.0,95,0.00,,,0.00,weatherlink.com 1.10,2013-07-13 06:48:00,
2013-07-13 02:18:00,60.9,60.0,30.07,ENE,73,0.0,0.0,96,0.00,,,0.00,weatherlink.com 1.10,2013-07-13 07:18:00,
2013-07-13 02:33:00,60.9,60.0,30.06,ENE,74,0.0,1.0,96,0.00,,,0.00,weatherlink.com 1.10,2013-07-13 07:33:00,
2013-07-13 02:48:00,60.5,59.0,30.06,ENE,73,0.0,0.0,95,0.00,,,0.00,weatherlink.com 1.10,2013-07-13 07:48:00,
2013-07-13 03:03:00,59.9,59.0,30.07,ENE,74,0.0,0.0,96,0.00,,,0.00,weatherlink.com 1.10,2013-07-13 08:03:00,
2013-07-13 03:18:00,61.1,60.0,30.06,East,84,2.0,2.0,96,0.00,,,0.00,weatherlink.com 1.10,2013-07-13 08:18:00,
2013-07-13 03:33:00,62.2,59.0,30.06,East,84,0.0,1.0,90,0.00,,,0.00,weatherlink.com 1.10,2013-07-13 08:33:00,
2013-07-13 03:48:00,60.5,58.0,30.06,East,84,0.0,0.0,92,0.00,,,0.00,weatherlink.com 1.10,2013-07-13 08:48:00,
2013-07-13 04:03:00,62.0,59.0,30.05,East,82,2.0,2.0,91,0.00,,,0.00,weatherlink.com 1.10,2013-07-13 09:03:00,
2013-07-13 04:18:00,62.2,60.0,30.05,East,82,0.0,1.0,91,0.00,,,0.00,weatherlink.com 1.10,2013-07-13 09:18:00,
2013-07-13 04:33:00,61.5,60.0,30.05,East,82,0.0,3.0,93,0.00,,,0.00,weatherlink.com 1.10,2013-07-13 09:33:00,
2013-07-13 04:48:00,61.6,59.0,30.05,East,82,0.0,1.0,91,0.00,,,0.00,weatherlink.com 1.10,2013-07-13 09:48:00,
2013-07-13 05:03:00,59.5,58.0,30.05,East,82,0.0,0.0,93,0.00,,,0.00,weatherlink.com 1.10,2013-07-13 10:03:00,
2013-07-13 05:18:00,59.0,58.0,30.05,East,82,0.0,0.0,95,0.00,,,0.00,weatherlink.com 1.10,2013-07-13 10:18:00,
2013-07-13 05:33:00,59.0,58.0,30.06,East,82,0.0,0.0,96,0.00,,,0.00,weatherlink.com 1.10,2013-07-13 10:33:00,
2013-07-13 05:48:00,58.8,58.0,30.06,East,82,0.0,0.0,97,0.00,,,0.00,weatherlink.com 1.10,2013-07-13 10:48:00,
2013-07-13 06:03:00,59.0,58.0,30.07,East,82,0.0,0.0,96,0.00,,,0.00,weatherlink.com 1.10,2013-07-13 11:03:00,
2013-07-13 06:18:00,60.2,59.0,30.07,East,82,0.0,0.0,96,0.00,,,0.00,weatherlink.com 1.10,2013-07-13 11:18:00,
2013-07-13 06:33:00,62.0,60.0,30.07,East,82,0.0,1.0,92,0.00,,,0.00,weatherlink.com 1.10,2013-07-13 11:33:00,
2013-07-13 06:48:00,64.2,62.0,30.07,East,82,0.0,1.0,91,0.00,,,0.00,weatherlink.com 1.10,2013-07-13 11:48:00,
2013-07-13 07:03:00,66.6,63.0,30.07,East,79,2.0,2.0,88,0.00,,,0.00,weatherlink.com 1.10,2013-07-13 12:03:00,
2013-07-13 07:18:00,67.0,62.0,30.07,ENE,72,0.0,1.0,85,0.00,,,0.00,weatherlink.com 1.10,2013-07-13 12:18:00,
2013-07-13 07:34:00,67.3,62.0,30.09,ENE,71,1.0,1.0,83,0.00,,,0.00,weatherlink.com 1.10,2013-07-13 12:34:00,
2013-07-13 07:48:00,67.7,64.0,30.09,ENE,68,0.0,2.0,89,0.00,,,0.00,weatherlink.com 1.10,2013-07-13 12:48:00,
2013-07-13 08:04:00,70.0,65.0,30.08,ENE,77,1.0,4.0,85,0.00,,,0.00,weatherlink.com 1.10,2013-07-13 13:04:00,
2013-07-13 08:19:00,71.7,65.0,30.09,ESE,105,2.0,2.0,79,0.00,,,0.00,weatherlink.com 1.10,2013-07-13 13:19:00,
2013-07-13 08:33:00,72.4,64.0,30.09,East,79,2.0,4.0,76,0.00,,,0.00,weatherlink.com 1.10,2013-07-13 13:33:00,
2013-07-13 08:49:00,74.0,64.0,30.09,East,79,1.0,3.0,72,0.00,,,0.00,weatherlink.com 1.10,2013-07-13 13:49:00,
2013-07-13 09:04:00,75.3,64.0,30.10,SSE,161,0.0,1.0,69,0.00,,,0.00,weatherlink.com 1.10,2013-07-13 14:04:00,
2013-07-13 09:20:00,77.8,66.0,30.10,ENE,74,0.0,2.0,66,0.00,,,0.00,weatherlink.com 1.10,2013-07-13 14:20:00,
2013-07-13 09:34:00,78.5,65.0,30.10,SW,214,1.0,2.0,63,0.00,,,0.00,weatherlink.com 1.10,2013-07-13 14:34:00,
2013-07-13 09:50:00,77.7,64.0,30.09,North,4,2.0,4.0,63,0.00,,,0.00,weatherlink.com 1.10,2013-07-13 14:50:00,
2013-07-13 10:05:00,79.0,65.0,30.09,East,85,1.0,4.0,63,0.00,,,0.00,weatherlink.com 1.10,2013-07-13 15:05:00,
2013-07-13 10:19:00,79.0,64.0,30.09,East,79,1.0,3.0,60,0.00,,,0.00,weatherlink.com 1.10,2013-07-13 15:19:00,
2013-07-13 10:35:00,79.8,65.0,30.09,ENE,63,1.0,3.0,60,0.00,,,0.00,weatherlink.com 1.10,2013-07-13 15:35:00,
2013-07-13 10:50:00,78.6,63.0,30.08,East,79,5.0,7.0,60,0.00,,,0.00,weatherlink.com 1.10,2013-07-13 15:50:00,
2013-07-13 11:05:00,78.8,64.0,30.09,East,85,2.0,6.0,60,0.00,,,0.00,weatherlink.com 1.10,2013-07-13 16:05:00,
2013-07-13 11:20:00,80.8,64.0,30.08,ENE,57,1.0,4.0,56,0.00,,,0.00,weatherlink.com 1.10,2013-07-13 16:20:00,
2013-07-13 11:36:00,81.2,63.0,30.08,East,79,4.0,6.0,55,0.00,,,0.00,weatherlink.com 1.10,2013-07-13 16:36:00,
2013-07-13 11:50:00,81.7,64.0,30.08,ENE,67,0.0,8.0,55,0.00,,,0.00,weatherlink.com 1.10,2013-07-13 16:50:00,
2013-07-13 12:05:00,81.7,64.0,30.08,NE,51,5.0,5.0,55,0.00,,,0.00,weatherlink.com 1.10,2013-07-13 17:05:00,
2013-07-13 12:21:00,81.1,63.0,30.07,West,270,1.0,6.0,55,0.00,,,0.00,weatherlink.com 1.10,2013-07-13 17:21:00,
2013-07-13 12:36:00,81.7,62.0,30.07,NE,55,6.0,7.0,51,0.00,,,0.00,weatherlink.com 1.10,2013-07-13 17:36:00,
2013-07-13 12:50:00,81.2,63.0,30.07,ENE,74,5.0,10.0,54,0.00,,,0.00,weatherlink.com 1.10,2013-07-13 17:50:00,
2013-07-13 13:05:00,82.6,62.0,30.07,East,79,2.0,5.0,50,0.00,,,0.00,weatherlink.com 1.10,2013-07-13 18:05:00,
2013-07-13 13:21:00,80.1,63.0,30.06,East,83,5.0,11.0,56,0.00,,,0.00,weatherlink.com 1.10,2013-07-13 18:21:00,
2013-07-13 13:36:00,82.0,64.0,30.06,ENE,68,0.0,8.0,54,0.00,,,0.00,weatherlink.com 1.10,2013-07-13 18:36:00,
2013-07-13 13:50:00,82.1,60.0,30.06,ENE,77,2.0,7.0,48,0.00,,,0.00,weatherlink.com 1.10,2013-07-13 18:50:00,
2013-07-13 14:06:00,83.6,62.0,30.05,East,82,2.0,6.0,49,0.00,,,0.00,weatherlink.com 1.10,2013-07-13 19:06:00,
2013-07-13 14:21:00,82.6,64.0,30.05,WSW,245,2.0,10.0,54,0.00,,,0.00,weatherlink.com 1.10,2013-07-13 19:21:00,
2013-07-13 14:37:00,83.4,63.0,30.05,ENE,60,1.0,8.0,50,0.00,,,0.00,weatherlink.com 1.10,2013-07-13 19:37:00,
2013-07-13 14:51:00,83.9,63.0,30.06,NNE,23,1.0,9.0,49,0.00,,,0.00,weatherlink.com 1.10,2013-07-13 19:51:00,
2013-07-13 15:07:00,83.4,63.0,30.05,ESE,110,1.0,8.0,51,0.00,,,0.00,weatherlink.com 1.10,2013-07-13 20:07:00,
2013-07-13 15:21:00,83.1,62.0,30.05,ENE,72,5.0,9.0,49,0.00,,,0.00,weatherlink.com 1.10,2013-07-13 20:21:00,
2013-07-13 15:37:00,81.6,62.0,30.05,ENE,74,2.0,9.0,51,0.00,,,0.00,weatherlink.com 1.10,2013-07-13 20:37:00,
2013-07-13 15:52:00,82.5,63.0,30.04,ENE,63,4.0,9.0,52,0.00,,,0.00,weatherlink.com 1.10,2013-07-13 20:52:00,
2013-07-13 16:07:00,82.9,63.0,30.04,NE,53,5.0,8.0,52,0.00,,,0.00,weatherlink.com 1.10,2013-07-13 21:07:00,
2013-07-13 16:21:00,82.8,66.0,30.04,ENE,69,6.0,8.0,57,0.00,,,0.00,weatherlink.com 1.10,2013-07-13 21:21:00,
2013-07-13 16:38:00,82.9,63.0,30.04,ENE,57,7.0,7.0,52,0.00,,,0.00,weatherlink.com 1.10,2013-07-13 21:38:00,
2013-07-13 16:52:00,82.4,63.0,30.04,East,79,2.0,7.0,53,0.00,,,0.00,weatherlink.com 1.10,2013-07-13 21:52:00,
2013-07-13 17:08:00,81.9,64.0,30.04,ENE,68,3.0,5.0,55,0.00,,,0.00,weatherlink.com 1.10,2013-07-13 22:08:00,
2013-07-13 17:22:00,82.0,64.0,30.03,East,81,4.0,8.0,55,0.00,,,0.00,weatherlink.com 1.10,2013-07-13 22:22:00,
2013-07-13 17:37:00,82.0,65.0,30.02,East,90,2.0,8.0,56,0.00,,,0.00,weatherlink.com 1.10,2013-07-13 22:37:00,
2013-07-13 17:53:00,81.7,63.0,30.02,ENE,71,4.0,7.0,54,0.00,,,0.00,weatherlink.com 1.10,2013-07-13 22:53:00,
2013-07-13 18:07:00,81.4,64.0,30.02,ENE,77,3.0,7.0,55,0.00,,,0.00,weatherlink.com 1.10,2013-07-13 23:07:00,
2013-07-13 18:23:00,80.9,63.0,30.02,ENE,72,7.0,8.0,54,0.00,,,0.00,weatherlink.com 1.10,2013-07-13 23:23:00,
2013-07-13 18:38:00,80.5,63.0,30.02,ENE,60,2.0,7.0,56,0.00,,,0.00,weatherlink.com 1.10,2013-07-13 23:38:00,
2013-07-13 18:53:00,80.0,63.0,30.02,ENE,69,4.0,7.0,56,0.00,,,0.00,weatherlink.com 1.10,2013-07-13 23:53:00,
2013-07-13 19:08:00,79.4,64.0,30.02,ENE,61,4.0,5.0,59,0.00,,,0.00,weatherlink.com 1.10,2013-07-14 00:08:00,
2013-07-13 19:22:00,78.8,64.0,30.02,ENE,74,1.0,4.0,61,0.00,,,0.00,weatherlink.com 1.10,2013-07-14 00:22:00,
2013-07-13 19:38:00,78.1,65.0,30.02,ENE,68,2.0,3.0,64,0.00,,,0.00,weatherlink.com 1.10,2013-07-14 00:38:00,
2013-07-13 19:53:00,77.2,65.0,30.02,ENE,74,2.0,4.0,65,0.00,,,0.00,weatherlink.com 1.10,2013-07-14 00:53:00,
2013-07-13 20:08:00,76.3,65.0,30.02,ENE,73,3.0,4.0,67,0.00,,,0.00,weatherlink.com 1.10,2013-07-14 01:08:00,
2013-07-13 20:23:00,75.6,65.0,30.03,East,80,3.0,4.0,69,0.00,,,0.00,weatherlink.com 1.10,2013-07-14 01:23:00,
2013-07-13 20:39:00,75.0,65.0,30.03,ENE,75,2.0,2.0,71,0.00,,,0.00,weatherlink.com 1.10,2013-07-14 01:39:00,
2013-07-13 20:53:00,74.5,65.0,30.03,East,82,3.0,4.0,71,0.00,,,0.00,weatherlink.com 1.10,2013-07-14 01:53:00,
2013-07-13 21:08:00,74.0,64.0,30.04,ENE,71,2.0,3.0,72,0.00,,,0.00,weatherlink.com 1.10,2013-07-14 02:08:00,
2013-07-13 21:24:00,73.6,64.0,30.05,ENE,73,1.0,3.0,73,0.00,,,0.00,weatherlink.com 1.10,2013-07-14 02:24:00,
2013-07-13 21:38:00,72.7,65.0,30.05,ENE,72,2.0,2.0,77,0.00,,,0.00,weatherlink.com 1.10,2013-07-14 02:38:00,
2013-07-13 21:54:00,72.8,64.0,30.04,ENE,62,2.0,3.0,75,0.00,,,0.00,weatherlink.com 1.10,2013-07-14 02:54:00,
2013-07-13 22:08:00,72.3,65.0,30.05,ENE,60,2.0,3.0,78,0.00,,,0.00,weatherlink.com 1.10,2013-07-14 03:08:00,
2013-07-13 22:24:00,71.8,65.0,30.05,NE,39,1.0,4.0,79,0.00,,,0.00,weatherlink.com 1.10,2013-07-14 03:24:00,
2013-07-13 22:39:00,71.7,65.0,30.05,ENE,73,4.0,5.0,79,0.00,,,0.00,weatherlink.com 1.10,2013-07-14 03:39:00,
2013-07-13 22:55:00,71.5,65.0,30.05,ENE,71,4.0,4.0,79,0.00,,,0.00,weatherlink.com 1.10,2013-07-14 03:55:00,
2013-07-13 23:09:00,71.3,65.0,30.05,ENE,72,3.0,4.0,80,0.00,,,0.00,weatherlink.com 1.10,2013-07-14 04:09:00,
2013-07-13 23:24:00,71.2,65.0,30.05,East,86,3.0,4.0,80,0.00,,,0.00,weatherlink.com 1.10,2013-07-14 04:24:00,
2013-07-13 23:40:00,71.6,65.0,30.05,East,79,2.0,5.0,79,0.00,,,0.00,weatherlink.com 1.10,2013-07-14 04:40:00,
2013-07-13 23:54:00,71.4,65.0,30.05,ENE,62,2.0,4.0,79,0.00,,,0.00,weatherlink.com 1.10,2013-07-14 04:54:00,